Date String (YYYY-MM-DD hh:mm:ss) UTC,Instrument flags,Ambient pressure (hPa),Sample flow (lpm),Bypass flow (lpm),Sample temperature (°C),Ambient temperature (°C),ASC tube jacket temperature (°C),LED temperature (°C),Box temperature (°C),Sample RH (%),Span deviation,Mass concentration (μg/m³),Mass concentration (μg/m³),Mass concentration (μg/m³)
DateTimeUTC,F1_M11,P_M11,Q1_M11,Q2_M11,T1_M11,T2_M11,T3_M11,T4_M11,T5_M11,U1_M11,ZSPAN_M11,X0_M11,X2_M11,X1_M11
2023-01-14 00:00:00,,0827.4,5.00,0.00,26.9,25.3,00.0,35.8,28.7,10.1,0006.4,0012.19,0006.41,0006.05
2023-01-14 00:01:00,,0827.4,5.00,0.00,26.9,25.4,00.0,35.8,28.7,10.1,0006.8,0012.76,0006.48,0006.07
2023-01-14 00:02:00,,0827.4,5.01,0.00,26.9,25.4,00.0,35.8,28.7,10.1,0006.4,0013.11,0006.60,0006.18
2023-01-14 00:03:00,,0827.3,5.00,0.00,26.9,25.5,00.0,35.7,28.7,10.0,0006.3,0012.63,0006.79,0006.35
2023-01-14 00:04:00,,0827.3,5.01,0.00,26.9,25.5,00.0,35.7,28.7,10.2,0007.5,0012.27,0007.01,0006.53
2023-01-14 00:05:00,,0827.3,5.00,0.00,26.9,25.5,00.0,35.7,28.7,10.3,0007.7,0012.70,0007.13,0006.64
2023-01-14 00:06:00,,0827.4,5.00,0.00,26.9,25.5,00.0,35.7,28.6,10.2,0006.8,0012.88,0007.24,0006.74
2023-01-14 00:07:00,,0827.4,4.99,0.00,26.9,25.5,00.0,35.7,28.6,10.4,0006.5,0012.78,0007.27,0006.76
2023-01-14 00:08:00,,0827.3,5.01,0.00,26.9,25.5,00.0,35.7,28.6,10.3,0006.5,0012.48,0007.29,0006.76
2023-01-14 00:09:00,,0827.3,5.00,0.00,26.9,25.5,00.0,35.7,28.6,10.2,0004.5,0012.03,0007.33,0006.79
2023-01-14 00:10:00,,0827.3,5.00,0.00,26.9,25.5,00.0,35.7,28.6,10.1,0006.4,0012.27,0007.40,0006.83
2023-01-14 00:11:00,,0827.3,5.00,0.00,26.9,25.5,00.0,35.7,28.6,10.2,0006.5,0012.35,0007.47,0006.87
2023-01-14 00:12:00,,0827.3,4.99,0.00,26.9,25.5,00.0,35.7,28.7,10.2,0006.1,0012.01,0007.52,0006.94
2023-01-14 00:13:00,,0827.4,5.00,0.00,26.9,25.5,00.0,35.7,28.7,10.4,0005.8,0012.40,0007.57,0006.99
2023-01-14 00:14:00,,0827.3,4.99,0.00,26.9,25.5,00.0,35.7,28.7,10.6,0006.0,0013.48,0007.53,0006.96
2023-01-14 00:15:00,,0827.4,4.99,0.00,26.9,25.5,00.0,35.7,28.7,10.7,0005.8,0013.32,0007.52,0006.93
2023-01-14 00:16:00,,0827.2,5.01,0.00,26.9,25.5,00.0,35.7,28.7,10.6,0006.0,0013.02,0007.63,0007.00
2023-01-14 00:17:00,,0827.2,5.00,0.00,26.9,25.5,00.0,35.7,28.7,10.7,0006.2,0013.07,0007.68,0007.05
2023-01-14 00:18:00,,0827.2,5.00,0.00,26.9,25.5,00.0,35.7,28.7,10.9,0005.6,0013.29,0007.80,0007.14
2023-01-14 00:19:00,,0827.2,4.99,0.00,26.9,25.5,00.0,35.7,28.7,11.1,0005.1,0014.19,0008.03,0007.32
2023-01-14 00:20:00,,0827.2,5.00,0.00,26.9,25.5,00.0,35.7,28.7,11.1,0005.0,0014.78,0008.26,0007.46
2023-01-14 00:21:00,,0827.2,5.00,0.00,26.9,25.5,00.0,35.7,28.6,11.1,0004.8,0014.64,0008.29,0007.50
2023-01-14 00:22:00,,0827.3,4.99,0.00,26.9,25.5,00.0,35.7,28.7,11.1,0004.5,0014.84,0008.33,0007.55
2023-01-14 00:23:00,,0827.3,5.00,0.00,26.9,25.5,00.0,35.7,28.7,11.1,0004.5,0014.88,0008.34,0007.55
2023-01-14 00:24:00,,0827.2,5.01,0.00,26.9,25.5,00.0,35.7,28.7,11.2,0004.2,0014.14,0008.34,0007.55
2023-01-14 00:25:00,,0827.2,5.01,0.00,26.9,25.5,00.0,35.7,28.7,11.3,0003.6,0013.38,0008.50,0007.63
2023-01-14 00:26:00,,0827.3,5.01,0.00,26.9,25.5,00.0,35.7,28.7,11.3,0003.5,0013.63,0008.65,0007.76
2023-01-14 00:27:00,,0827.3,5.00,0.00,26.9,25.5,00.0,35.7,28.7,11.2,0003.1,0013.83,0008.80,0007.90
2023-01-14 00:28:00,,0827.3,4.99,0.00,26.9,25.5,00.0,35.7,28.7,11.1,0003.1,0014.79,0008.95,0007.98
2023-01-14 00:29:00,,0827.3,5.00,0.00,26.9,25.5,00.0,35.7,28.7,10.7,0003.8,0015.40,0009.10,0008.09
2023-01-14 00:30:00,,0827.3,5.00,0.00,26.9,25.5,00.0,35.7,28.7,10.4,0004.4,0015.49,0009.49,0008.42
2023-01-14 00:31:00,,0827.2,5.00,0.00,26.9,25.5,00.0,35.7,28.7,10.5,0004.2,0016.14,0010.04,0008.93
2023-01-14 00:32:00,,0827.2,5.00,0.00,26.9,25.5,00.0,35.7,28.7,10.5,0004.4,0017.97,0010.84,0009.59
2023-01-14 00:33:00,,0827.3,5.00,0.00,26.9,25.5,00.0,35.7,28.7,10.5,0004.3,0019.63,0011.60,0010.23
2023-01-14 00:34:00,,0827.3,5.01,0.00,26.9,25.5,00.0,35.7,28.6,10.7,0004.0,0021.33,0012.24,0010.80
2023-01-14 00:35:00,,0827.3,5.01,0.00,26.8,25.5,00.0,35.7,28.6,10.9,0004.1,0022.89,0012.98,0011.43
2023-01-14 00:36:00,,0827.4,5.01,0.00,26.8,25.5,00.0,35.7,28.7,10.9,0004.1,0024.15,0013.75,0012.12
2023-01-14 00:37:00,,0827.4,4.99,0.00,26.8,25.5,00.0,35.7,28.6,10.9,0004.2,0025.25,0014.46,0012.77
2023-01-14 00:38:00,,0827.4,5.01,0.00,26.8,25.5,00.0,35.7,28.6,10.9,0004.4,0026.52,0015.08,0013.35
2023-01-14 00:39:00,,0827.4,4.99,0.00,26.8,25.5,00.0,35.7,28.6,10.9,0004.5,0027.40,0015.64,0013.90
2023-01-14 00:40:00,,0827.4,5.01,0.00,26.8,25.5,00.0,35.7,28.6,10.9,0004.6,0028.39,0016.17,0014.34
2023-01-14 00:41:00,,0827.4,5.00,0.00,26.8,25.5,00.0,35.7,28.6,10.9,0004.4,0028.45,0016.43,0014.64
2023-01-14 00:42:00,,0827.4,4.98,0.00,26.8,25.5,00.0,35.7,28.6,10.9,0004.6,0028.41,0016.44,0014.67
2023-01-14 00:43:00,,0827.4,5.00,0.00,26.8,25.4,00.0,35.7,28.6,11.0,0004.7,0027.83,0016.26,0014.52
2023-01-14 00:44:00,,0827.3,5.00,0.00,26.8,25.4,00.0,35.7,28.6,10.9,0004.9,0027.26,0015.99,0014.28
2023-01-14 00:45:00,,0827.2,5.00,0.00,26.8,25.4,00.0,35.7,28.6,10.9,0005.0,0026.63,0015.92,0014.22
2023-01-14 00:46:00,,0827.2,5.01,0.00,26.8,25.4,00.0,35.7,28.6,11.0,0005.0,0026.65,0015.86,0014.22
2023-01-14 00:47:00,,0827.3,5.00,0.00,26.8,25.4,00.0,35.7,28.6,11.0,0005.0,0026.28,0015.73,0014.11
2023-01-14 00:48:00,,0827.3,5.01,0.00,26.8,25.4,00.0,35.6,28.6,11.0,0005.1,0025.76,0015.57,0013.98
2023-01-14 00:49:00,,0827.4,5.00,0.00,26.8,25.4,00.0,35.6,28.6,11.0,0004.9,0025.21,0015.58,0013.98
2023-01-14 00:50:00,,0827.4,5.00,0.00,26.8,25.3,00.0,35.6,28.6,11.0,0005.0,0024.91,0015.69,0014.05
2023-01-14 00:51:00,,0827.4,5.00,0.00,26.8,25.2,00.0,35.6,28.5,10.9,0004.9,0024.28,0015.65,0014.06
2023-01-14 00:52:00,,0827.3,5.00,0.00,26.7,25.2,00.0,35.6,28.5,10.9,0004.8,0024.57,0015.49,0013.95
2023-01-14 00:53:00,,0827.2,5.00,0.00,26.7,25.2,00.0,35.6,28.6,10.9,0004.8,0024.57,0015.26,0013.74
2023-01-14 00:54:00,,0827.2,5.00,0.00,26.7,25.3,00.0,35.6,28.6,11.0,0004.5,0025.36,0015.17,0013.65
2023-01-14 00:55:00,,0827.3,5.00,0.00,26.7,25.3,00.0,35.6,28.6,11.0,0004.4,0025.33,0015.25,0013.73
2023-01-14 00:56:00,,0827.4,4.99,0.00,26.7,25.3,00.0,35.6,28.5,11.1,0004.5,0025.38,0015.26,0013.76
2023-01-14 00:57:00,,0827.4,5.01,0.00,26.7,25.3,00.0,35.6,28.5,11.1,0004.5,0025.05,0015.26,0013.78
2023-01-14 00:58:00,,0827.4,4.99,0.00,26.7,25.3,00.0,35.6,28.5,11.1,0004.7,0025.26,0015.27,0013.82
2023-01-14 00:59:00,,0827.3,5.00,0.00,26.7,25.3,00.0,35.6,28.5,11.0,0004.8,0025.81,0015.33,0013.88
